Regional Weather Roundup
Issued by NWS

Home | Current Version | Previous Version | Graphics & Text | Print | Product List | Glossary On
Versions: 1 2 3 4 5 6 7 8 9 10 11 12 13 14 15 16 17 18 19 20 21 22 23 24 25 26 27 28 29 30 31 32 33 34 35 36 37 38 39 40 41 42 43 44 45 46 47 48 49 50
000
ASUS43 KLMK 231010
RWRKY
KENTUCKY REGIONAL WEATHER ROUNDUP
NATIONAL WEATHER SERVICE LOUISVILLE KY
600 AM EDT TUE MAY 23 2017

NOTE "FAIR" INDICATES FEW OR NO CLOUDS BELOW 12,000 FEET
WITH NO SIGNIFICANT WEATHER AND/OR OBSTRUCTIONS TO VISIBILITY.

KYZ001>023-026-027-061>063-070>075-231100-
WESTERN AND SOUTH CENTRAL KENTUCKY

CITY           SKY/WX    TMP DP  RH WIND       PRES   REMARKS
PADUCAH        MOCLDY    55  52  89 CALM      29.83S
HENDERSON      CLOUDY    59  54  83 CALM      29.85F
OWENSBORO      CLOUDY    58  52  80 CALM      29.86F
HOPKINSVILLE   CLOUDY    61  56  85 N5        29.83F
BOWLING GREEN  MOCLDY    60  56  86 E3        29.85F
GLASGOW        CLOUDY    58  53  83 NE3       29.85F
$$

KYZ024-025-028>034-038-045-046-053-231100-
NORTH CENTRAL KENTUCKY

CITY           SKY/WX    TMP DP  RH WIND       PRES   REMARKS
LOUISVILLE/SDF CLOUDY    59  51  75 E3        29.87F
LOUISVILLE/LOU CLOUDY    53  51  93 CALM      29.88F
FORT KNOX      CLOUDY    54  51  89 NE5       29.85F
$$

KYZ035>037-039>044-047>052-055>060-089>105-231100-
NORTHEAST KENTUCKY

CITY           SKY/WX    TMP DP  RH WIND       PRES   REMARKS
LEXINGTON      CLOUDY    56  49  77 NE7       29.88F
COVINGTON      CLOUDY    52  47  83 SE3       29.88F
FRANKFORT      MOCLDY    55  50  83 CALM      29.87F
$$

KYZ054-064>069-076>088-106>120-231100-
SOUTHEAST KENTUCKY

CITY           SKY/WX    TMP DP  RH WIND       PRES   REMARKS
JACKSON        CLOUDY    56  50  80 CALM      29.87F
LONDON         CLOUDY    57  52  83 N3        29.87F
SOMERSET       CLOUDY    55  52  88 CALM      29.88S
MIDDLESBORO    MOCLDY    58  58 100 CALM      29.88S
MONTICELLO     CLOUDY    58  55  90 NE8       29.89S
$$




USA.gov is the U.S. government's official web portal to all federal, state and local government web resources and services.